This is the latest recevied weather packets stored in our database for station/object K7FLA. If no packets are shown the sender has not sent any weather packets the latest 10 day(s).
| Time | Temp. | Humidity | Pressure | Rain* | Wind** | Luminosity | Snow |
|---|---|---|---|---|---|---|---|
| 1778104667 | 26.11° C | 33% | 1096.4 hPa | 0 mm | - | 666 W/m² | - |
| 1778104363 | 26.11° C | 34% | 1096.5 hPa | 0 mm | - | 677 W/m² | - |
| 1778104059 | 26.11° C | 32% | 1096.7 hPa | 0 mm | - | 689 W/m² | - |
| 1778103756 | 26.11° C | 34% | 1096.7 hPa | 0 mm | - | 700 W/m² | - |
| 1778103455 | 25.56° C | 35% | 1096.5 hPa | 0 mm | - | 712 W/m² | - |
| 1778103151 | 25.56° C | 32% | 1096.7 hPa | 0 mm | - | 722 W/m² | - |
| 1778102849 | 25.56° C | 33% | 1096.8 hPa | 0 mm | - | 736 W/m² | - |
| 1778102544 | 25.56° C | 31% | 1097.1 hPa | 0 mm | - | 743 W/m² | - |
| 1778102240 | 25.56° C | 31% | 1096.7 hPa | 0 mm | - | 751 W/m² | - |
| 1778101936 | 25.56° C | 34% | 1096.9 hPa | 0 mm | - | 761 W/m² | - |
| 1778101633 | 25.56° C | 32% | 1096.9 hPa | 0 mm | - | 773 W/m² | - |
| 1778101330 | 25.56° C | 33% | 1097.1 hPa | 0 mm | - | 781 W/m² | - |
| 1778101027 | 25.56° C | 33% | 1096.9 hPa | 0 mm | - | 791 W/m² | - |
| 1778100722 | 25.56° C | 32% | 1096.8 hPa | 0 mm | - | 797 W/m² | - |
| 1778100420 | 25.56° C | 34% | 1097 hPa | 0 mm | - | 808 W/m² | - |
| 1778100116 | 25.56° C | 38% | 1097.1 hPa | 0 mm | - | 811 W/m² | - |
| 1778099815 | 25° C | 34% | 1097.3 hPa | 0 mm | - | 815 W/m² | - |
| 1778099512 | 25° C | 33% | 1097.3 hPa | 0 mm | - | 825 W/m² | - |
| 1778099210 | 25° C | 35% | 1097.4 hPa | 0 mm | - | 831 W/m² | - |
| 1778098905 | 25° C | 34% | 1097.3 hPa | 0 mm | - | 834 W/m² | - |
| 1778098602 | 25° C | 36% | 1097.5 hPa | 0 mm | - | 840 W/m² | - |
| 1778098299 | 24.44° C | 34% | 1097.5 hPa | 0 mm | - | 841 W/m² | - |
| 1778097995 | 24.44° C | 36% | 1097.5 hPa | 0 mm | - | 842 W/m² | - |
| 1778097693 | 23.89° C | 38% | 1097.6 hPa | 0 mm | - | 846 W/m² | - |
| 1778097389 | 23.89° C | 34% | 1097.5 hPa | 0 mm | - | 850 W/m² | - |
* Rain latest hour (hover to see other rain measurements)
** Current wind speed in m/s (hover to see current wind gust speed)